User: anonymous   Login
Location: Saddleback Butte
(34.6776°N, 117.8050°W)
Time: 00:06:28
(UTC-07:00)
Language:

Cosmos 1862 Rocket - Orbit

View from above orbital plane
View from above orbital plane
View from above satellite
View from above satellite

Ground track
Ground track

The orbit data is extracted from the following two-line orbital elements,

1 18153U 87055B   15087.69510335  .00000567  00000-0  66801-4 0  9999
2 18153 082.5008 146.2357 0020473 233.7004 126.2320 14.82904002498081
Epoch (UTC): 28 March 2015 16:40:56
Eccentricity: 0.0020473
inclination: 82.5008°
perigee height: 606 km
apogee height: 634 km
right ascension of ascending node: 146.2357°
argument of perigee: 233.7004°
revolutions per day: 14.82904002
mean anomaly at epoch: 126.2320°
orbit number at epoch: 49808

The dashed part of the orbit path shows where the satellite is in the earth's shadow,  

DLR